Terminal Aerodrome Forecast
Issued by NWS Grand Forks, ND

Home | Current Version | Previous Version | Text Only | Print | Product List | Glossary On
Versions: 1 2 3 4 5 6 7 8 9 10 11 12 13 14 15 16 17 18 19 20 21
000
FTUS43 KFGF 021135 AAB
TAFGFK
TAF AMD
KGFK 021135Z 0212/0312 16007KT 1/2SM FG VV002
      TEMPO 0212/0213 1/4SM FG VV001
     FM021400 16013KT P6SM SKC=

USA.gov is the U.S. government's official web portal to all federal, state and local government web resources and services.